Regional Weather Roundup
Issued by NWS State College, PA

Home | Current Version | Previous Version | Graphics & Text | Print | Product List | Glossary Off
Versions: 1 2 3 4 5 6 7 8 9 10 11 12 13 14 15 16 17 18 19 20 21 22 23 24 25 26 27 28 29 30 31 32 33 34 35 36 37 38 39 40 41 42 43 44 45 46 47 48 49 50

000
ASUS41 KCTP 010810
RWRCTP

REGIONAL WEATHER ROUNDUP
NATIONAL WEATHER SERVICE STATE COLLEGE PA
400 AM EDT MON SEP 01 2014

Note: "fair" indicates few or no clouds below 12,000 feet with no
significant weather and/or obstructions to visibility.

* = STATION THAT DOES NOT REPORT PRECIPITATION /E.G. RAIN...SNOW...ETC/
    THUNDER OR FOG.

PAZ002>004-007>009-013>016-020>023-029>032-010900-
WESTERN PENNSYLVANIA

CITY           SKY/WX    TMP DP  RH WIND       PRES   REMARKS
ERIE           PTCLDY    72  68  88 SW7       29.99R
MEADVILLE      FOG       70  68  93 SW6       30.03S VSB 1
FRANKLIN*      CLOUDY    70  66  88 SW5       30.06R
NEW CASTLE     CLOUDY    71  70  97 CALM      30.03S
BEAVER COUNTY  NOT AVBL
BUTLER*        CLOUDY    70  66  88 CALM      30.06R
PITTSBURGH INT CLOUDY    70  68  93 CALM      30.03S
PITTSBURGH     CLOUDY    70  67  90 SW5       30.03S
INDIANA*       CLOUDY    70  70 100 CALM      30.08S
LATROBE        CLOUDY    72  72 100 CALM      30.04F
WASHINGTON CO* CLOUDY    66  66 100 CALM      30.04S
$$

PAZ004>006-010>012-017>019-024>028-033>037-041-042-045-046-049>053-010900-
CENTRAL PENNSYLVANIA

CITY           SKY/WX    TMP DP  RH WIND       PRES   REMARKS
BRADFORD       CLOUDY    68  66  93 CALM      30.05S
DUBOIS         CLOUDY    69  68  96 SW9       30.04S FOG
CLEARFIELD     CLOUDY    69  69 100 S3        30.04F FOG
JOHNSTOWN      CLOUDY    67  65  93 W5        30.08S
ALTOONA        MOCLDY    68  67  96 W5        30.05F
STATE COLLEGE  CLOUDY    69  67  95 CALM      30.04R
WILLIAMSPORT   CLOUDY    68  66  93 CALM      30.00S FOG
SELINSGROVE    CLOUDY    69  68  96 CALM      30.02R FOG
FT INDIANTOWN  CLOUDY    69  69 100 CALM      30.02S
CAPITAL CITY   CLOUDY    70  69  97 CALM      30.01S
HARRISBURG     CLOUDY    72  70  93 NW5       30.01R
YORK           CLOUDY    71  69  93 CALM      30.01F
$$

PAZ038>040-043-044-047-048-054-055-060>062-067>071-010900-
EASTERN PENNSYLVANIA

CITY           SKY/WX    TMP DP  RH WIND       PRES   REMARKS
SCRANTON       CLOUDY    69  67  93 CALM      30.02S FOG
MOUNT POCONO   MOCLDY    67  65  93 NW5       30.06S
ALLENTOWN      MOCLDY    72  70  94 CALM      30.01S
QUAKERTOWN*    PTSUNNY   72  72 100 CALM      30.03R
READING        CLOUDY    74  71  91 CALM      30.01R
LANCASTER      LGT RAIN  72  71  97 CALM      30.01F FOG
COATESVILLE    CLOUDY    72  72 100 CALM      30.03F FOG
POTTSTOWN      MOCLDY    71  70  96 CALM      30.03R
BLUE BELL      CLOUDY    73  72  94 CALM      30.00S
DOYLESTOWN     MOCLDY    71  71 100 CALM      30.00S
WILLOW GROVE   NOT AVBL
NORTH PHILA    CLOUDY    75  71  87 SW3       30.02R
PHILADELPHIA   CLOUDY    74  72  93 SW5       30.00F
$$



USA.gov is the U.S. government's official web portal to all federal, state and local government web resources and services.